Location: Pordenone
(45.9640°N, 12.6580°E)
Time: 02:58:04
(UTC+02:00)

ISS - Pass Details

Date: 16 May 2021
Orbit: 417 x 422 km, 51.6° (Epoch: 14 June)

Event Time Altitude Azimuth Distance (km) Brightness Sun altitude
Rises 21:13:55 0° 214° (SW) 2,349 0.0 -6.3°
Reaches altitude 10° 21:16:08 10° 203° (SSW) 1,491 -1.1 -6.7°
Maximum altitude 21:19:07 30° 141° (SE) 781 -2.9 -7.1°
Drops below altitude 10° 21:22:06 10° 78° (ENE) 1,502 -1.3 -7.5°
Sets 21:24:21 0° 67° (ENE) 2,370 -0.2 -7.8°
